(2018 MK) |
Classification: Apollo [NEO] SPK-ID: 3825284 |
[ hide orbit diagram ]
For accurate long-term ephemerides, please instead use our Horizons system.This orbit viewer was implemented using two-body methods, and hence should not be used for determining accurate long-term trajectories (over several years or decades) or planetary encounter circumstances.
Orbital Elements at Epoch 2458280.5 (2018-Jun-11.0) TDB
Reference: JPL 3 (heliocentric ecliptic J2000)
Element | Value | Uncertainty (1-sigma) | Units |
e | .4616802827830157 | 0.0013715 | |
a | 1.774497125132922 | 0.004495 | au |
q | .955246790603906 | 1.4064e-05 | au |
i | 26.70593215490704 | 0.041493 | deg |
node | 87.67409055316345 | 0.00042254 | deg |
peri | 221.4497256790274 | 0.030765 | deg |
M | 342.1413343968498 | 0.085038 | deg |
tp | 2458323.330967191811 (2018-Jul-23.83096719) | 0.041206 | TDB |
period | 863.3986733214882 2.36 | 3.2806 0.008982 | d yr |
n | .4169568602822641 | 0.0015843 | deg/d |
Q | 2.593747459661938 | 0.0065703 | au |
|
| | Orbit Determination Parameters
Additional Information
|
[ show covariance matrix ]
[ show close-approach data ]
|